Weather History for Torrington, WY

Change the Weather History Date:

Thursday, April 4, 2013

  Actual Average Record
Temperature  
Mean Temperature 53 °F 43 °F  
Max Temperature 71 °F 57 °F 79 °F (2000)
Min Temperature 34 °F 29 °F 2 °F (1999)
Degree Days  
Heating Degree Days 12 22  
Month to date heating degree days 78 90  
Since 1 July heating degree days 5543 5774  
Cooling Degree Days 0 0  
Month to date cooling degree days 0 0  
Year to date cooling degree days 0 0  
Growing Degree Days 3 (Base 50)    
Moisture  
Dew Point 30 °F    
Average Humidity 50    
Maximum Humidity 82    
Minimum Humidity 17    
Precipitation  
Precipitation T in 0.03 in 0.45 in (2009)
Month to date precipitation T 0.13  
Year to date precipitation 0.54 1.48  
Sea Level Pressure  
Sea Level Pressure 29.99 in    
Wind  
Wind Speed 9 mph (ESE)    
Max Wind Speed 24 mph    
Max Gust Speed 30 mph    
Visibility 10 miles    
Events Rain    
T = Trace of Precipitation, MM = Missing Value Source: NWS Daily Summary

Daily Weather History Graph

Daily Weather History Graph

Search for Another Location

Airport:

Trip Planner

Search our weather history database for the weather conditions in past years. The results will help you decide how hot, cold, wet, or windy it might be!

Date:

Astronomy

Apr. 04, 2013 Rise Set
Actual Time 6:33 AM MDT 7:25 PM MDT
Civil Twilight 6:05 AM MDT 7:54 PM MDT
Nautical Twilight 5:31 AM MDT 8:28 PM MDT
Astronomical Twilight 4:56 AM MDT 9:03 PM MDT
Moon 3:07 AM MDT (4/4) 1:41 PM MDT (4/4)
Length of Visible Light 13h 49m
Length of Day
12h 52m
Waning Crescent, 33% of the Moon is Illuminated
Apr 4
Waning Crescent
Apr 10
New
Apr 18
First Quarter
Apr 25
Full
May 2
Last Quarter

Hourly Weather History & Observations

Time (MDT) Temp. Windchill Dew Point Humidity Pressure Visibility Wind Dir Wind Speed Gust Speed Precip Events Conditions
12:12 AM 51.8 °F - 37.4 °F 58% 30.12 in 10.0 mi North 18.4 mph 28.8 mph 0.00 in Rain Light Rain
12:53 AM 48.9 °F - 36.0 °F 61% 30.04 in 10.0 mi NE 11.5 mph - 0.00 in   Overcast
1:05 AM 48.2 °F - 35.6 °F 62% 30.12 in 10.0 mi NNE 13.8 mph - N/A   Overcast
1:53 AM 45.0 °F 37.4 °F 34.0 °F 65% 30.05 in 10.0 mi NE 18.4 mph - 0.00 in   Partly Cloudy
2:53 AM 42.1 °F 33.6 °F 32.0 °F 67% 30.04 in 10.0 mi NNE 18.4 mph - N/A   Clear
3:53 AM 39.9 °F 35.8 °F 30.9 °F 70% 30.06 in 10.0 mi WSW 5.8 mph - N/A   Clear
4:53 AM 37.9 °F 35.5 °F 30.9 °F 76% 30.08 in 10.0 mi NW 3.5 mph - N/A   Clear
5:53 AM 35.1 °F 31.0 °F 28.9 °F 78% 30.09 in 10.0 mi North 4.6 mph - N/A   Clear
6:53 AM 35.1 °F - 28.9 °F 78% 30.10 in 10.0 mi Calm Calm - N/A   Clear
7:53 AM 36.0 °F 33.3 °F 30.0 °F 79% 30.11 in 10.0 mi SE 3.5 mph - N/A   Clear
8:53 AM 41.0 °F 36.4 °F 30.9 °F 67% 30.10 in 10.0 mi SE 6.9 mph - N/A   Clear
9:53 AM 48.9 °F - 33.1 °F 54% 30.06 in 10.0 mi SSE 8.1 mph - N/A   Clear
10:53 AM 55.9 °F - 35.1 °F 45% 30.04 in 10.0 mi SE 6.9 mph - N/A   Clear
11:53 AM 62.1 °F - 33.1 °F 34% 30.00 in 10.0 mi South 5.8 mph - N/A   Clear
12:53 PM 66.0 °F - 28.9 °F 25% 29.97 in 10.0 mi NNW 5.8 mph - N/A   Clear
1:53 PM 68.0 °F - 26.1 °F 21% 29.95 in 10.0 mi Variable 4.6 mph - N/A   Partly Cloudy
2:53 PM 71.1 °F - 25.0 °F 18% 29.91 in 10.0 mi SSW 11.5 mph - N/A   Clear
3:53 PM 70.0 °F - 24.1 °F 18% 29.90 in 10.0 mi SW 6.9 mph - N/A   Clear
4:53 PM 71.1 °F - 24.1 °F 17% 29.88 in 10.0 mi Variable 3.5 mph - N/A   Clear
5:53 PM 69.1 °F - 24.1 °F 18% 29.89 in 10.0 mi SSE 5.8 mph - N/A   Clear
6:53 PM 64.9 °F - 24.1 °F 21% 29.90 in 10.0 mi ESE 6.9 mph - N/A   Partly Cloudy
7:53 PM 59.0 °F - 28.9 °F 32% 29.90 in 10.0 mi ESE 10.4 mph - N/A   Scattered Clouds
8:53 PM 59.0 °F - 30.9 °F 35% 29.89 in 10.0 mi ESE 15.0 mph 21.9 mph N/A   Overcast
9:53 PM 55.9 °F - 32.0 °F 40% 29.88 in 10.0 mi SE 15.0 mph - N/A   Clear
10:53 PM 53.1 °F - 32.0 °F 45% 29.86 in 10.0 mi SE 15.0 mph - N/A   Clear
11:53 PM 53.1 °F - 32.0 °F 45% 29.83 in 10.0 mi SSE 19.6 mph 24.2 mph N/A   Clear